Regional Weather Roundup
Issued by NWS

Home | Current Version | Previous Version | Graphics & Text | Print | Product List | Glossary On
Versions: 1 2 3 4 5 6 7 8 9 10 11 12 13 14 15 16 17 18 19 20 21 22 23 24 25 26 27 28 29 30 31 32 33 34 35 36 37 38 39 40 41 42 43 44 45 46 47 48 49 50
000
ASUS43 KMPX 211601
RWRMN
WEATHER ROUNDUP FOR MINNESOTA
NATIONAL WEATHER SERVICE TWIN CITIES/CHANHASSEN MN
1100 AM CDT THU SEP 21 2017


NOTE: "FAIR" INDICATES FEW OR NO CLOUDS BELOW 12,000 FEET WITH NO
SIGNIFICANT WEATHER AND/OR OBSTRUCTIONS TO VISIBILITY. N/A MEANS
CURRENT SKY AND/OR WEATHER CONDITIONS ARE NOT AVAILABLE.

MNZ060>063-068>070-211700-
   Twin Cities Metro

CITY           SKY/WX    TMP DP  RH WIND       PRES   REMARKS
TWIN CITIES    SUNNY     69  57  65 SE14      29.96F
ST PAUL        SUNNY     70  58  65 SE10G21   29.96F
CRYSTAL        SUNNY     71  52  50 E9G17     29.94F
BLAINE         SUNNY     72  55  56 SE12      29.96F
LAKEVILLE      SUNNY     70  57  64 E8        29.95F
EDEN PRAIRIE   SUNNY     70  55  59 E15       29.94F
SOUTH ST PAUL  SUNNY     69  56  63 SE6       29.96F
LAKE ELMO      FAIR      70  59  68 SE9G17    29.98F
$$
MNZ001>005-007-008-013>017-022>024-027-028-211700-
   Northwest Minnesota

CITY           SKY/WX    TMP DP  RH WIND       PRES   REMARKS
BEMIDJI        SUNNY     65  44  46 SE10      29.92F
HALLOCK        CLOUDY    63  52  67 S12       29.80F
ROSEAU         PTSUNNY   66  48  52 S22       29.86F
WARROAD        CLOUDY    64  52  63 S10G16    29.88S
CROOKSTON      SUNNY     68  46  45 S21G28    29.84F
FOSSTON        SUNNY     66  46  48 SE9       29.87F
DETROIT LAKES  SUNNY     66  46  48 SE14G22   29.88F
MOORHEAD       SUNNY     68  46  45 SE21      29.83F
PARK RAPIDS    SUNNY     66  47  50 SE14      29.92F
MAHNOMEN       FAIR      67  44  42 S12       29.86F
$$
MNZ006-009>011-018-025>026-211700-
   North Central Minnesota

CITY           SKY/WX    TMP DP  RH WIND       PRES   REMARKS
BAUDETTE       SUNNY     67  47  48 SE12      29.91F
FLAG ISLAND    CLOUDY    61  50  67 S16G22    29.87F
INTL FALLS     SUNNY     64  45  49 S9G17     29.97R
WASKISH        SUNNY     66  46  48 S9        29.92F
BIG FORK       SUNNY     64  48  55 SE10G18   29.96F
LONGVILLE      SUNNY     64  48  55 SE13      29.94S
GRAND RAPIDS   SUNNY     63  50  62 SE10      29.99S
CRANE LAKE     SUNNY     63  48  59 S6        30.00F
ORR            SUNNY     63  46  55 SE13G18   29.96F
COOK           SUNNY     63  48  59 SE12G20   29.99F
WALKER         FAIR      63  47  54 S6        29.94R
$$
MNZ012-019>021-037-211700-
   Northeast Minnesota

CITY           SKY/WX    TMP DP  RH WIND       PRES   REMARKS
DULUTH         SUNNY     63  52  67 SE12      30.03S
ELY            SUNNY     63  46  55 SE15      30.02F
HIBBING        SUNNY     63  50  62 SE15      29.99F
EVELETH        SUNNY     63  46  55 SE8       30.02F
DULUTH HARBOR  SUNNY     63  57  82 NE8       30.04S
SILVER BAY     MOSUNNY   66  55  68 E5        30.04R
GRAND MARAIS     N/A     63  56  78 E8        30.06S
$$
MNZ029>031-032-039>041-046>048-054>057-064-211700-
   West Central Minnesota

CITY           SKY/WX    TMP DP  RH WIND       PRES   REMARKS
FERGUS FALLS   SUNNY     68  46  45 SE16      29.85F
WHEATON        SUNNY     68  46  45 SE20      29.85F
MORRIS         SUNNY     68  52  56 S20       29.86F
ALEXANDRIA     SUNNY     67  50  54 SE16G24   29.90F
ELBOW LAKE     FAIR      67  49  52 E15       29.86F
WADENA         SUNNY     64  48  55 SE13G18   29.90F
GLENWOOD       SUNNY     66  52  59 SE14G22   29.90F
APPLETON       SUNNY     68  52  56 SE13      29.86F
BENSON         SUNNY     68  50  52 S16       29.89F
ORTONVILLE     SUNNY     64  52  63 NE14G21   29.85F
MADISON        SUNNY     70  54  56 SE15      29.86F
WILLMAR        FAIR      70  55  60 E15       29.90F
$$
MNZ033>034-036-042>043-049>051-058-059-211700-
   Central Minnesota

CITY           SKY/WX    TMP DP  RH WIND       PRES   REMARKS
ST CLOUD       SUNNY     67  53  61 SE13G21   29.93F
SAUK CENTRE    FAIR      65  51  60 SE15G21   29.92F
PAYNESVILLE    SUNNY     67  53  60 SE14      29.92F
AITKIN         SUNNY     66  50  55 SE13G18   29.95S
PINE RIVER     SUNNY     63  52  67 SE9       29.97F
BRAINERD       SUNNY     64  49  57 SE13G26   29.95S
LITTLE FALLS   SUNNY     64  43  45 SE16        N/A
LITCHFIELD     SUNNY     70  55  60 E16       29.93F
BUFFALO        SUNNY     69  52  54 E12G18    29.95F
MAPLE LAKE     SUNNY     69  56  62 E7        29.95F
HUTCHINSON     PTSUNNY   70  57  63 E14G22    29.94S
$$
MNZ037-044-045-052-053-211700-
   East Central Minnesota

CITY           SKY/WX    TMP DP  RH WIND       PRES   REMARKS
PRINCETON      SUNNY     70  55  60 E7        29.95F
MORA           SUNNY     64  52  63 SE10      29.99F
RUSH CITY      SUNNY     67  55  64 SE3       29.98F
MOOSE LAKE     SUNNY     64  52  63 SE6       29.99F
HINCKLEY       FAIR      64  54  68 E6        29.99F
CLOQUET        SUNNY     63  48  59 E9        30.02F
MCGREGOR       SUNNY     64  50  59 SE18      29.98F
$$
MNZ071>073-080-081-089-090-097-098-211700-
   Southwest Minnesota

CITY           SKY/WX    TMP DP  RH WIND       PRES   REMARKS
MONTEVIDEO     SUNNY     70  54  56 S13G18    29.88S
GRANITE FALLS  SUNNY     70  55  59 E10G17    29.89F
CANBY          SUNNY     69  54  57 E12       29.87F
MARSHALL       SUNNY     71  56  58 S16       29.87F
REDWOOD FALLS  SUNNY     71  55  56 SE15G23   29.88F
OLIVIA         SUNNY     70  52  52 SE17G23   29.89F
PIPESTONE      SUNNY     73  59  60 S13G23    29.85F
WORTHINGTON    MOSUNNY   72  64  76 SE15G22   29.89F
JACKSON        PTSUNNY   70  63  78 SE15      29.92S
TRACY          SUNNY     72  61  68 SE15      29.88F
SLAYTON        SUNNY     68  58  72 SE14G21   29.90F
$$
MNZ065>067-074>077-082>085-091>093-211700-
   South Central Minnesota

CITY           SKY/WX    TMP DP  RH WIND       PRES   REMARKS
MANKATO        SUNNY     71  59  65 SE18      29.93F
NEW ULM        SUNNY     70  55  60 SE17G23   29.91F
ST JAMES       SUNNY     72  61  68 E15       29.92F
FAIRMONT       CLOUDY    69  64  84 SE8       29.93S
GLENCOE        SUNNY     71  59  66 E17G24    29.93F
FARIBAULT      SUNNY     72  61  68 SE13      29.95F
OWATONNA       CLOUDY    72  63  73 SE14      29.95F
WASECA         CLOUDY    72  63  73 E13G18    29.95F
ALBERT LEA     CLOUDY    70  63  78 SE9       29.95F
$$
MNZ078>079-086>088-094>096-211700-
   Southeast Minnesota

CITY           SKY/WX    TMP DP  RH WIND       PRES   REMARKS
ROCHESTER      CLOUDY    66  60  81 SE10      29.99F
RED WING       SUNNY     72  55  56 SE10      29.96F
STANTON        SUNNY     72  58  62 SE10      29.95S
DODGE CENTER   CLOUDY    68  59  73 SE13G18   29.97F
WINONA         PTSUNNY   70  61  73 SE6       29.99S
AUSTIN         CLOUDY    66  63  88 SE8       29.96S
PRESTON        MOSUNNY   68  61  78 NE6       29.99F
$$
ABBREVIATIONS USED IN REMARKS
   TC - TEMPERATURES IN CELSIUS
  WCI - WIND CHILL INDEX
   HX - HEAT INDEX
  VSB - VISIBILITY
$$




USA.gov is the U.S. government's official web portal to all federal, state and local government web resources and services.